QUAO2: Spring River Near Quapaw, OK

Data processed at Fri Mar 09 2018 23:20


All information presented herein is the property of the government of the United States of America and may be revised or deleted at any time without prior notice.
Dissemination of this information without the expressed written consent of the Public Affairs Office, Tulsa District U.S. Army Corps of Engineers is strictly prohibited.
These data are gathered electronically and, as presented, have not undergone any form of quality control. These data are not guaranteed to be valid or correct.
Go to home page.
Go to station list.

Upstream stations:

Downstream station:
Previous Day
Next Day
Current Day
    
SHEF ID:       QUAO2     Spring River near Quapaw, OK
STATION TYPE:  

               PRECIP     STAGE  STAGE(2)  RIV-FLOW  BAT-LOAD
                   in        ft        ft       cfs      volt
              Ccp-Rev   Ccp-Rev   Ccp-Rev   Ccp-Rev   Ccp-Rev
(US/Central)
03/07 00:00      0.00      8.70      8.67      2660     12.41
03/07 01:00      0.00      8.69      8.66      2646     12.41
03/07 02:00      0.00      8.68      8.70      2631     12.41
03/07 03:00      0.00      8.66      8.69      2603     12.41
03/07 04:00      0.00      8.65      8.68      2589     12.33
03/07 05:00      0.00      8.64      8.67      2576     12.33
03/07 06:00      0.00      8.64      8.66      2576     12.33
03/07 07:00      0.00      8.63      8.64      2562     12.33
03/07 08:00      0.00      8.61      8.63      2534     12.33
03/07 09:00      0.00      8.61      8.63      2534     12.49
03/07 10:00      0.00      8.60      8.60      2520     13.29
03/07 11:00      0.00      8.59      8.58      2506     13.21
03/07 12:00      0.00      8.58      8.59      2493     13.29
03/07 13:00      0.00      8.57      8.56      2479     13.37
03/07 14:00      0.00      8.55      8.55      2452     13.29
03/07 15:00      0.00      8.54      8.54      2438     13.21
03/07 16:00      0.00      8.53      8.53      2425     13.37
03/07 17:00      0.00      8.53      8.55      2425     13.37
03/07 18:00      0.00      8.52      8.53      2412     13.21
03/07 19:00      0.00      8.52      8.54      2412     12.97
03/07 20:00      0.00      8.51      8.54      2398     12.65
03/07 21:00      0.00      8.51      8.53      2398     12.57
03/07 22:00      0.00      8.50      8.53      2385     12.57
03/07 23:00      0.00      8.49      8.52      2371     12.49